This is the latest recevied weather packets stored in our database for station/object OM7FX-15. If no packets are shown the sender has not sent any weather packets the latest 10 day(s).
| Time | Temp. | Humidity | Pressure | Rain* | Wind** | Luminosity | Snow |
|---|---|---|---|---|---|---|---|
| 1777332684 | 22.78° C | 42% | 973.6 hPa | - | - | - | - |
| 1777331784 | 23.33° C | 42% | 973.5 hPa | - | - | - | - |
| 1777330884 | 23.33° C | 42% | 973.4 hPa | - | - | - | - |
| 1777329984 | 23.33° C | 42% | 973.3 hPa | - | - | - | - |
| 1777329089 | 23.33° C | 42% | 973.3 hPa | - | - | - | - |
| 1777328184 | 23.33° C | 43% | 973.3 hPa | - | - | - | - |
| 1777327283 | 23.33° C | 43% | 973.2 hPa | - | - | - | - |
| 1777326383 | 23.33° C | 42% | 973.2 hPa | - | - | - | - |
| 1777325483 | 23.33° C | 39% | 973.1 hPa | - | - | - | - |
| 1777324583 | 23.33° C | 43% | 973.2 hPa | - | - | - | - |
| 1777323683 | 23.33° C | 43% | 973 hPa | - | - | - | - |
| 1777322783 | 23.33° C | 43% | 973.1 hPa | - | - | - | - |
| 1777321883 | 23.33° C | 43% | 973 hPa | - | - | - | - |
| 1777320983 | 23.33° C | 43% | 972.9 hPa | - | - | - | - |
| 1777320083 | 23.89° C | 43% | 972.9 hPa | - | - | - | - |
| 1777319183 | 23.89° C | 42% | 973 hPa | - | - | - | - |
| 1777318283 | 23.89° C | 42% | 973 hPa | - | - | - | - |
| 1777317383 | 23.89° C | 41% | 972.7 hPa | - | - | - | - |
| 1777316483 | 23.89° C | 41% | 972.3 hPa | - | - | - | - |
| 1777315583 | 23.89° C | 41% | 972.4 hPa | - | - | - | - |
| 1777314682 | 23.89° C | 41% | 972.1 hPa | - | - | - | - |
| 1777313782 | 23.89° C | 41% | 972.2 hPa | - | - | - | - |
| 1777312882 | 23.89° C | 40% | 971.9 hPa | - | - | - | - |
| 1777311982 | 23.33° C | 38% | 971.8 hPa | - | - | - | - |
| 1777311082 | 23.33° C | 42% | 971.8 hPa | - | - | - | - |
* Rain since midnight (hover to see other rain measurements)
** Current wind speed in m/s (hover to see current wind gust speed)